Weather in Znamenka

Russia / Kursk Oblast     51°28′24″N   37°45′23″E
temp.,
°C
wind,
m/s
gust,
m/s
humid.,
%
clouds,
%
prec.,
mm/h
press.,
hPa
HPBL,
m
26 february, fri
fri2600:00+2w510100100 0.1 1020201
03:00+2wnw511100100 0.3 1020227
06:00+2w51199100 0.1 1019238
09:00+2w613100100 0.1 1018309
12:00+2w714100100 0.0 1017423
15:00+2w81598100 0.1 1015514
18:00+3w61499100 0.1 1013354
21:00+2w61297100 0.3 1013368
27 february, sat
sat2700:00+1w51195100 0.0 1011343
03:00+1w51095100 0.0 1011323
06:00+1w51195100 0.0 1009385
09:00+1w61194100 0.1 1009433
12:00+1wnw61098100 0.1 1009628
15:00+1wnw6109899 0.2 1008627
18:00+1wnw51097100 0.1 1009475
21:00+1nw51092100 0.2 1010505
28 february, sun
sun2800:000nnw51192100 0.1 1012681
03:00−4n499285 0.1 1015606
06:00−5n51088100 0.0 1016552
09:00−6n588679 0.0 1018523
12:00−4nnw588383 0.0 1018568
15:00−3nnw578491 0.1 1019668
18:00−3nnw4989100 0.1 1020807
21:00−3n3790100 0.1 1021628
1 march, mon
mon100:00−4n2689100 0.0 1022592
03:00−5nnw359297 0.1 1023209
06:00−6nnw349453 0.0 1025133
09:00−5n359262 0.0 1026334
12:00−4n358386 0.0 1028543
15:00−4n348091 0.0 1029554
18:00−5nnw249045 0.0 1029168
21:00−6wnw229322 0.0 103059
2 march, tue
tue200:00−6wsw359233 0.0 1030136
03:00−5w489067 0.0 1028268
06:00−4wsw51093100 0.0 1026300
09:00−2w61294100 0.1 1024472
12:000w61192100 0.1 1022537
15:00+1w61293100 0.1 1020555
18:00+1wnw61293100 0.0 1018573
21:00+1nw51294100 0.0 1018510